GW6920 Weather Reports


time (UTC)temp
F
wind
direction
speed
knots
gust
knots
rain 1hr
in
rain 24hr
in
rain mn
in
humidity
%
barometer
mb
20260504160256 70 264 1.7 3.5 0.00 0.00 0.00 33 1013.4
20260504150722 68 275 1.7 3.5 0.00 0.00 0.00 32 1013.7
20260504150219 68 219 0.9 2.6 0.00 0.00 0.00 31 1013.7
20260504141148 63 215 0.9 1.7 0.00 0.00 0.00 38 1013.9
20260504140645 63 292 0.9 2.6 0.00 0.00 0.00 39 1013.9
20260504140140 63 239 0.0 1.7 0.00 0.00 0.00 37 1014.0
20260504130609 57 290 0.9 1.7 0.00 0.00 0.00 47 1014.6
20260504130105 57 275 0.0 2.6 0.00 0.00 0.00 46 1014.8
20260504110456 49 261 0.0 1.7 0.00 0.00 0.00 63 1015.1
20260504100418 51 255 0.0 0.0 0.00 0.00 0.00 56 1014.9
20260504081811 50 264 0.0 0.0 0.00 0.00 0.00 62 1015.4
20260504081308 50 264 0.0 0.0 0.00 0.00 0.00 63 1015.2
20260504080804 50 264 0.0 0.0 0.00 0.00 0.00 62 1015.3
20260504080301 50 264 0.0 0.0 0.00 0.00 0.00 61 1015.4
20260504070229 48 254 0.0 0.0 0.00 0.00 0.00 69 1015.0
20260504060149 48 254 0.0 0.0 0.00 0.00 0.00 67 1015.8
20260504050617 46 254 0.0 0.0 0.00 0.00 0.00 66 1015.7
20260504050114 46 254 0.0 0.0 0.00 0.00 0.00 65 1015.5
20260504045611 46 254 0.0 0.9 0.00 0.00 0.00 66 1015.6
20260504045106 46 254 0.0 0.0 0.00 0.00 0.00 66 1015.6
20260504044604 46 254 0.0 0.0 0.00 0.00 0.00 66 1015.6
20260504044100 46 254 0.0 0.0 0.00 0.00 0.00 66 1015.4
20260504043558 45 254 0.0 0.0 0.00 0.00 0.00 67 1015.5
20260504043055 45 254 0.0 0.0 0.00 0.00 0.00 68 1015.5
20260504042552 44 254 0.0 0.0 0.00 0.00 0.00 68 1015.5
20260504042049 44 254 0.0 0.0 0.00 0.00 0.00 68 1015.5
20260504041545 44 254 0.0 0.0 0.00 0.00 0.00 69 1015.5
20260504041041 44 254 0.0 0.0 0.00 0.00 0.00 68 1015.4
20260504040539 44 254 0.0 0.0 0.00 0.00 0.00 67 1015.4
20260504040035 44 254 0.0 0.0 0.00 0.00 0.00 67 1015.5
20260504035532 44 254 0.0 0.0 0.00 0.00 0.00 66 1015.6
20260504035028 44 254 0.0 0.0 0.00 0.00 0.00 66 1015.7
20260504034526 44 254 0.0 0.0 0.00 0.00 0.00 66 1015.5
20260504034023 44 254 0.0 0.0 0.00 0.00 0.00 66 1015.6
20260504033521 44 254 0.0 0.0 0.00 0.00 0.00 65 1015.6
20260504033018 44 254 0.0 0.0 0.00 0.00 0.00 65 1015.4
20260504032515 45 254 0.0 0.0 0.00 0.00 0.00 65 1015.5
20260504032012 45 254 0.0 0.0 0.00 0.00 0.00 64 1015.4
20260504031509 45 254 0.0 0.0 0.00 0.00 0.00 64 1015.3
20260504031005 45 254 0.0 0.0 0.00 0.00 0.00 63 1015.4
20260504030502 46 254 0.0 0.0 0.00 0.00 0.00 62 1015.2
20260504025958 46 254 0.0 0.0 0.00 0.00 0.00 61 1015.2
20260504025455 46 254 0.0 0.0 0.00 0.00 0.00 62 1015.2
20260504024952 46 254 0.0 0.0 0.00 0.00 0.00 62 1015.3
20260504024449 46 254 0.0 0.0 0.00 0.00 0.00 62 1015.2
20260504023946 46 254 0.0 0.0 0.00 0.00 0.00 61 1015.2
20260504023443 46 254 0.0 0.0 0.00 0.00 0.00 60 1015.1
20260504022938 46 254 0.0 0.0 0.00 0.00 0.00 59 1015.1
20260504022435 46 254 0.0 0.0 0.00 0.00 0.00 59 1015.2
20260504021931 46 254 0.0 0.0 0.00 0.00 0.00 59 1015.1
20260504021429 47 254 0.0 0.0 0.00 0.00 0.00 59 1015.1
20260504020926 47 254 0.0 0.0 0.00 0.00 0.00 57 1015.0
20260504020422 48 254 0.0 0.0 0.00 0.00 0.00 56 1015.1
20260504015919 48 254 0.0 0.0 0.00 0.00 0.00 56 1015.0
20260504015415 48 254 0.0 0.0 0.00 0.00 0.00 54 1014.8
20260504014911 48 254 0.0 0.9 0.00 0.00 0.00 53 1015.0
20260504014407 48 254 0.9 0.9 0.00 0.00 0.00 54 1014.9
20260504013904 48 254 0.0 0.0 0.00 0.00 0.00 55 1015.1
20260504013403 48 254 0.0 0.0 0.00 0.00 0.00 54 1014.7
20260504012859 48 254 0.0 0.0 0.00 0.00 0.00 53 1014.7
20260504012357 49 254 0.0 0.0 0.00 0.00 0.00 52 1014.8
20260504011854 50 254 0.0 0.0 0.00 0.00 0.00 50 1014.6
20260504011350 50 254 0.0 0.0 0.00 0.00 0.00 49 1014.8
20260504010846 50 254 0.0 0.0 0.00 0.00 0.00 48 1014.5
20260504010342 50 254 0.0 0.0 0.00 0.00 0.00 48 1014.6
20260504005839 51 254 0.0 0.0 0.00 0.00 0.00 47 1014.6
20260504005336 51 254 0.0 0.0 0.00 0.00 0.00 46 1014.7
20260504004833 51 254 0.0 0.0 0.00 0.00 0.00 45 1014.5
20260504004331 52 254 0.0 0.0 0.00 0.00 0.00 44 1014.5
20260504003827 52 254 0.0 0.0 0.00 0.00 0.00 43 1014.4
20260504003324 53 254 0.0 0.0 0.00 0.00 0.00 42 1014.5
20260504002821 53 254 0.0 0.0 0.00 0.00 0.00 41 1014.5
20260504002317 53 254 0.0 0.0 0.00 0.00 0.00 41 1014.4
20260504001815 54 254 0.0 0.0 0.00 0.00 0.00 39 1014.3
20260504001312 55 254 0.0 0.0 0.00 0.00 0.00 38 1014.4
20260504000809 56 254 0.0 0.0 0.00 0.00 0.00 36 1014.2
20260504000306 56 254 0.0 0.0 0.00 0.00 0.00 36 1014.2
20260503235804 57 254 0.0 0.0 0.00 0.00 0.00 34 1014.2
20260503235301 59 254 0.0 0.0 0.00 0.00 0.00 32 1014.2
20260503234759 60 254 0.0 0.0 0.00 0.00 0.00 33 1014.2
20260503234256 60 254 0.0 0.0 0.00 0.00 0.00 28 1014.0
20260503233754 61 266 0.0 0.9 0.00 0.00 0.00 27 1013.8
20260503233249 62 267 0.0 0.9 0.00 0.00 0.00 26 1013.9
20260503232746 62 345 0.0 0.0 0.00 0.00 0.00 25 1014.0
20260503232244 62 286 0.9 1.7 0.00 0.00 0.00 25 1014.0
20260503231742 62 233 0.0 1.7 0.00 0.00 0.00 25 1014.0
20260503231238 62 292 0.9 1.7 0.00 0.00 0.00 25 1013.7
20260503230734 62 257 0.9 0.9 0.00 0.00 0.00 26 1013.7
20260503230232 62 306 0.0 1.7 0.00 0.00 0.00 25 1013.9
20260503225729 62 223 1.7 2.6 0.00 0.00 0.00 25 1013.8
20260503225229 63 250 0.9 2.6 0.00 0.00 0.00 24 1013.7
20260503224726 63 305 0.9 1.7 0.00 0.00 0.00 24 1013.9
20260503224224 63 249 0.0 2.6 0.00 0.00 0.00 25 1014.0
20260503223721 63 286 0.9 1.7 0.00 0.00 0.00 24 1013.9
20260503223219 64 275 3.5 5.2 0.00 0.00 0.00 23 1013.9
20260503222715 64 291 1.7 6.1 0.00 0.00 0.00 23 1013.8
20260503222213 64 316 0.9 5.2 0.00 0.00 0.00 24 1013.9
20260503221711 64 61 1.7 1.7 0.00 0.00 0.00 23 1014.0
20260503221209 64 284 4.3 7.0 0.00 0.00 0.00 23 1013.9
20260503220705 65 225 3.5 6.1 0.00 0.00 0.00 23 1014.0
20260503220202 65 27 0.0 1.7 0.00 0.00 0.00 23 1014.0
20260503215659 65 280 1.7 2.6 0.00 0.00 0.00 24 1014.1
20260503215155 65 147 0.0 2.6 0.00 0.00 0.00 22 1013.8
20260503214654 65 11 0.0 2.6 0.00 0.00 0.00 24 1013.9
20260503214149 65 271 0.0 3.5 0.00 0.00 0.00 23 1014.2
20260503213649 65 165 0.9 5.2 0.00 0.00 0.00 23 1013.9
20260503213145 65 250 0.0 1.7 0.00 0.00 0.00 23 1014.0
20260503212643 66 305 1.7 3.5 0.00 0.00 0.00 24 1014.3
20260503212140 66 207 0.9 5.2 0.00 0.00 0.00 23 1014.1
20260503211638 65 283 2.6 5.2 0.00 0.00 0.00 24 1013.9
20260503211133 65 208 1.7 2.6 0.00 0.00 0.00 22 1014.0
20260503210629 66 4 0.9 2.6 0.00 0.00 0.00 23 1014.0
20260503210126 65 246 0.9 2.6 0.00 0.00 0.00 24 1014.0
20260503205622 66 341 2.6 3.5 0.00 0.00 0.00 23 1014.2
20260503205118 66 313 2.6 3.5 0.00 0.00 0.00 23 1014.4
20260503204615 66 285 2.6 3.5 0.00 0.00 0.00 24 1014.3
20260503204113 65 299 1.7 2.6 0.00 0.00 0.00 26 1014.2
20260503203610 64 109 0.0 5.2 0.00 0.00 0.00 24 1014.2
20260503203107 64 300 2.6 3.5 0.00 0.00 0.00 25 1014.1
20260503202604 64 292 4.3 7.0 0.00 0.00 0.00 26 1014.1
20260503202102 64 262 3.5 7.0 0.00 0.00 0.00 24 1014.2
20260503201600 64 118 1.7 7.0 0.00 0.00 0.00 25 1014.4
20260503201057 65 176 1.7 5.2 0.00 0.00 0.00 25 1014.8
20260503200553 64 4 0.9 2.6 0.00 0.00 0.00 24 1014.5
20260503200050 64 320 1.7 5.2 0.00 0.00 0.00 24 1014.7
20260503195547 64 277 5.2 8.7 0.00 0.00 0.00 24 1014.7
20260503195044 64 343 1.7 7.0 0.00 0.00 0.00 25 1014.8
20260503194541 64 247 1.7 3.5 0.00 0.00 0.00 25 1014.8
20260503194041 63 344 1.7 7.0 0.00 0.00 0.00 26 1014.7
20260503193538 62 213 1.7 3.5 0.00 0.00 0.00 27 1015.0
20260503193033 63 351 2.6 7.0 0.00 0.00 0.00 26 1015.1
20260503192529 63 56 0.9 6.1 0.00 0.00 0.00 26 1015.2
20260503192026 64 345 3.5 7.0 0.00 0.00 0.00 27 1015.2
20260503191522 64 128 2.6 5.2 0.00 0.00 0.00 26 1015.2
20260503191019 63 310 1.7 2.6 0.00 0.00 0.00 27 1015.4
20260503190516 63 285 3.5 5.2 0.00 0.00 0.00 27 1015.3
20260503190013 62 341 1.7 2.6 0.00 0.00 0.00 29 1015.4
20260503185509 62 257 0.9 7.0 0.00 0.00 0.00 29 1015.6
20260503185009 62 244 0.9 7.0 0.00 0.00 0.00 27 1015.6
20260503184506 62 231 1.7 11.3 0.00 0.00 0.00 29 1015.8
20260503184002 60 270 2.6 5.2 0.00 0.00 0.00 29 1016.0
20260503183459 62 264 2.6 2.6 0.00 0.00 0.00 27 1016.0
20260503182955 62 38 0.9 3.5 0.00 0.00 0.00 28 1016.0
20260503182455 60 228 0.9 2.6 0.00 0.00 0.00 28 1016.0
20260503181952 61 236 2.6 3.5 0.00 0.00 0.00 28 1015.9
20260503181449 61 122 0.9 2.6 0.00 0.00 0.00 28 1015.8
20260503180945 61 93 1.7 7.0 0.00 0.00 0.00 28 1015.8
20260503180443 61 238 0.9 5.2 0.00 0.00 0.00 28 1016.2
20260503175939 61 298 1.7 3.5 0.00 0.00 0.00 30 1015.8
20260503175438 62 349 1.7 5.2 0.00 0.00 0.00 29 1016.0
20260503174938 60 299 0.9 2.6 0.00 0.00 0.00 31 1016.1
20260503174437 60 257 3.5 9.6 0.00 0.00 0.00 30 1016.1
20260503173932 60 298 2.6 8.7 0.00 0.00 0.00 28 1015.9
20260503173428 60 291 1.7 7.8 0.00 0.00 0.00 29 1016.3
20260503172925 60 280 3.5 6.1 0.00 0.00 0.00 27 1016.1
20260503172422 59 339 3.5 5.2 0.00 0.00 0.00 30 1016.3
20260503171918 59 146 1.7 2.6 0.00 0.00 0.00 29 1016.4
20260503171415 60 81 1.7 3.5 0.00 0.00 0.00 28 1016.4
20260503170913 60 250 2.6 5.2 0.00 0.00 0.00 30 1016.4
20260503170409 59 274 2.6 7.0 0.00 0.00 0.00 30 1016.3